Weather Roundup
Issued by NWS

Home | Current Version | Previous Version | Graphics & Text | Print | Product List | Glossary Off
Versions: 1 2 3 4 5 6 7 8 9 10 11 12 13 14 15 16 17 18 19 20 21 22 23 24 25 26 27 28 29 30 31 32 33 34 35 36 37 38 39 40 41 42 43 44 45 46 47 48 49 50

673
NZUS93 KARX 082159
HRRWXR

CURRENT HOURLY OBSERVATIONS ACROSS
MUCH OF THE UPPER MISSISSIPPI VALLEY
NATIONAL WEATHER SERVICE LA CROSSE WI
400 PM CST THU DEC 08 2016


...SOUTHEAST MINNESOTA...


CITY           SKY/WX    TMP DP  RH WIND       PRES   REMARKS
ROCHESTER      FLURRIES  20  15  81 NW20      30.38R WCI   4
ROCHESTER/MAYO CLOUDY    21  17  83 W20G25    30.38R WCI   6
WINONA           N/A     27  18  69 NW10      30.40R WCI  17
AUSTIN         LGT SNOW  18  12  79 NW18      30.42R WCI   2
ALBERT LEA     FLURRIES  21  16  79 NW12G22   30.44R WCI   9
DODGE CENTER   FLURRIES  19  16  86 NW14G21   30.40R WCI   6
PRESTON        FLURRIES  19  14  79 NW16G23   30.39R WCI   5
OWATONNA       FLURRIES  19  12  73 W17G23    30.43R WCI   4
FARIBAULT      NOT AVBL
$$

...ELSEWHERE IN MINNESOTA...


CITY           SKY/WX    TMP DP  RH WIND       PRES   REMARKS
MINNEAPOLIS    CLOUDY    22  11  62 NW17      30.44R WCI   8
INTNL FALLS    CLOUDY    17  10  74 NW9       30.38R WCI   6
DULUTH         MOCLDY    22  12  65 NW12G25   30.30R WCI  10
RED WING       LGT SNOW  25  18  74 NW9       30.41R WCI  15
REDWOOD FALLS  MOCLDY    17   8  67 NW17G23   30.51R WCI   1
MANKATO        FLURRIES  17  12  80 NW22      30.48R WCI   0
WORTHINGTON    CLEAR     17  10  74 NW21      30.50R WCI   0
FAIRMONT       FLURRIES  19  11  70 NW26      30.49R WCI   1
$$

...SOUTHWEST WISCONSIN...


CITY           SKY/WX    TMP DP  RH WIND       PRES   REMARKS
LA CROSSE      CLOUDY    27  17  66 NW15      30.38R WCI  15
PRAIRIE DU CHI FLURRIES  24  15  66 NW15      30.40R WCI  12
BOSCOBEL       CLOUDY    25  15  66 W8        30.40R WCI  16
LONE ROCK      NOT AVBL
PLATTEVILLE    CLOUDY    23  18  81 W13       30.37R WCI  11
FORT MC COY    FLURRIES  25  17  72 W8        30.35R WCI  16
MAUSTON-NEW LI FLURRIES  24  17  73 W8        30.32R WCI  15
VIROQUA        CLOUDY    22  17  79 NW13      30.33R WCI  10
WIS DELLS      FLURRIES  23  16  73 W14       30.31R WCI  11
$$

...ELSEWHERE IN WISCONSIN...


CITY           SKY/WX    TMP DP  RH WIND       PRES   REMARKS
MILWAUKEE      FLURRIES  26  15  63 NW18G29   30.28R WCI  13
MADISON        FLURRIES  23  16  74 W7        30.33R WCI  15
GREEN BAY      CLOUDY    31  19  61 W20G25    30.21R WCI  19
EAU CLAIRE     NOT AVBL
BLACK RVR FLS  FLURRIES  25  17  70 W6        30.34R WCI  18
MEDFORD        FLURRIES  22  15  75 NW13G21   30.24R WCI  10
WAUSAU         CLOUDY    24  16  71 W15       30.23R WCI  11
WIS RAPIDS     MOCLDY    24  15  68 NW10G20   30.30R WCI  14
MARSHFIELD     PTCLDY    22  13  68 W12       30.26R WCI  10
RICE LAKE      CLOUDY    24  15  68 W13       30.36R WCI  12
$$

...NORTHEAST IOWA...


CITY           SKY/WX    TMP DP  RH WIND       PRES   REMARKS
WATERLOO       CLOUDY    22  14  71 NW12      30.46R WCI  10
DUBUQUE        CLOUDY    21  14  74 NW16      30.39R WCI   7
DECORAH        CLOUDY    21  16  79 W8G20     30.38R WCI  12
MASON CITY     CLOUDY    20  12  71 NW18      30.47R WCI   5
CHARLES CITY   FLURRIES  19  12  73 NW15G22   30.44R WCI   5
OELWEIN        CLOUDY    19  14  79 NW17G24   30.43R WCI   4
$$

...ELSEWHERE IN IOWA...


CITY           SKY/WX    TMP DP  RH WIND       PRES   REMARKS
DES MOINES     PTCLDY    24  10  55 NW18      30.53R WCI  10
IOWA CITY      FLURRIES  22  13  68 W14G24    30.50R WCI   9
FORT DODGE     CLEAR     23  10  58 NW10G21   30.51R WCI  12
MARSHALLTOWN   PTCLDY    23  14  68 NW23      30.47S WCI   7
CEDAR RAPIDS   CLOUDY    20  15  81 W20       30.46R WCI   4
$$

...NORTHERN ILLINOIS...


CITY           SKY/WX    TMP DP  RH WIND       PRES   REMARKS
CHICAGO-OHARE  CLOUDY    22  14  71 W18       30.34R WCI   7
CHICAGO-MIDWAY FLURRIES  22  13  68 W16G24    30.35R WCI   8
MOLINE         CLOUDY    22  13  68 W15G23    30.45R WCI   9
ROCKFORD       FLURRIES  23  15  71 W18       30.38R WCI   9
PEORIA         CLOUDY    21  12  68 NW10      30.47R WCI  10
$$

NOTE: "FAIR" INDICATES FEW OR NO CLOUDS BELOW 12,000 FEET WITH NO
SIGNIFICANT WEATHER AND/OR OBSTRUCTIONS TO VISIBILITY. WIND
SPEEDS ARE IN MILES-PER-HOUR.




USA.gov is the U.S. government's official web portal to all federal, state and local government web resources and services.